CAPE
1539 1327 1223 975 930 1134 1178 1087 1142 1201 1230 1064 1025 1002 944 929 894 895 730 592 676 879 765 925 1082 1063 938 908 877 1089 1184 1406 1420 1473 1424 996 665 1060 788 1114 721 729 565 374 384 422 290 121 18 12 5 2 1 0 0 0 0 0 0 0 0 0 0
1589 1379 1099 1047 1127 1109 1147 1121 1005 1064 1097 1062 1002 948 837 801 834 827 750 764 857 805 752 1002 1065 878 1096 1058 899 1013 1054 1030 1164 1312 895 849 940 1193 644 532 463 382 286 612 631 452 318 140 41 46 2 2 0 0 0 0 0 0 0 0 0 0 0
1268 1307 1344 1293 1340 1324 1147 966 886 957 972 956 920 810 727 652 785 929 846 898 1076 913 719 784 855 795 706 980 1010 951 983 1172 1186 790 854 814 941 970 1040 652 398 263 208 295 450 534 433 323 157 10 20 22 8 0 0 0 0 0 0 0 0 0 0
1479 1582 1365 1262 1200 1156 1128 926 918 840 822 1013 994 788 829 665 637 807 835 936 1190 1253 1053 1084 1166 1074 963 784 818 836 795 794 828 710 762 1001 1053 959 761 525 472 342 345 382 412 391 421 391 194 53 19 14 2 0 0 0 0 0 0 0 0 0 0
1542 1735 1805 1609 1417 1233 1198 1081 930 913 896 865 941 965 916 914 788 734 736 871 1018 1289 1316 1437 1384 1406 908 780 754 558 590 539 545 576 496 875 905 938 968 801 723 858 665 504 429 502 461 466 340 102 25 5 0 0 0 0 0 0 0 0 0 0 0
1751 1815 1722 1515 1260 1060 966 951 892 884 862 833 883 794 704 766 1007 1020 951 841 969 1196 1429 1567 1730 1483 1101 1042 862 731 709 575 611 672 670 648 1104 1183 1171 1016 674 496 381 243 426 500 681 645 472 189 45 21 10 0 0 0 0 0 0 0 0 0 0
1683 1721 1555 1353 1138 1096 1010 990 967 894 862 955 844 849 640 450 580 989 1150 1272 1080 958 1114 1446 1536 1539 1268 1059 794 783 960 815 665 703 583 1556 1358 1365 1500 1069 887 334 276 150 440 533 630 608 396 191 30 41 20 0 0 0 0 0 0 0 0 0 0
1394 1481 1438 1352 1129 973 911 1032 1068 1044 973 942 732 723 380 587 600 602 680 972 941 787 797 1015 1202 1327 1403 1126 852 779 775 1094 1092 1145 1146 1118 1250 1203 1277 1183 1098 524 309 152 248 305 391 444 493 265 125 62 11 0 0 0 0 0 0 0 0 0 0
1063 1259 1060 892 1096 1184 883 914 911 882 997 820 621 467 361 553 796 856 795 962 959 983 992 1040 1075 974 1003 1343 1228 1105 1218 657 1115 1045 1117 1048 1214 1283 1283 1250 919 549 339 154 107 336 288 577 591 396 284 56 7 0 0 0 0 0 0 0 0 0 0
966 1054 1037 957 927 783 790 853 813 663 659 848 601 410 208 304 630 974 1023 1036 1133 1157 1165 1106 1143 1204 1260 1348 1270 1197 1103 850 1054 1054 1139 1165 1343 1285 1201 1152 1099 857 413 170 83 312 539 614 514 501 155 48 0 0 0 0 0 0 0 0 0 0 0
892 1049 1038 945 722 526 452 498 537 498 715 685 479 148 206 385 600 526 881 824 827 946 1100 965 865 889 1027 1056 967 1000 894 936 1107 966 1034 1103 1103 1098 1203 1090 1120 834 484 236 111 252 328 484 499 477 314 97 18 0 0 0 0 0 0 0 0 0 0
654 719 771 744 592 614 482 500 586 677 473 320 207 95 149 240 488 515 585 562 597 621 615 645 517 558 702 726 597 656 667 596 736 688 514 699 786 923 1132 1273 1175 1050 520 325 147 96 170 240 456 416 288 140 36 0 0 0 0 1 0 0 0 0 0
455 454 492 514 546 590 463 418 356 349 512 224 203 115 103 184 378 417 338 393 424 502 553 556 542 572 624 633 638 539 522 358 239 253 166 176 332 664 1007 1198 1044 964 518 357 246 145 72 89 192 150 80 64 82 342 106 1 0 0 1 0 0 0 0
505 410 384 508 562 486 330 260 291 387 107 130 23 37 50 83 106 138 152 215 460 520 558 502 498 504 523 508 307 188 0 0 0 0 0 0 260 471 612 727 725 663 567 547 350 222 112 74 33 47 23 16 12 63 38 2 0 4 4 2 2 0 0
351 256 424 416 518 302 230 200 119 36 192 1 0 0 0 24 32 22 38 58 59 42 2 0 0 15 0 0 0 0 0 0 0 0 0 0 0 9 52 83 308 544 635 876 410 293 193 132 8 10 1 2 2 11 38 0 0 0 0 0 0 0 0
121 256 414 407 420 130 94 19 1 142 28 0 0 0 0 0 0 0 0 0 0 0 0 0 0 5 36 8 0 0 0 1 4 3 7 0 0 0 0 0 0 0 117 516 597 372 258 231 53 0 4 0 0 0 0 0 0 0 0 0 0 0 0
178 226 318 311 320 116 20 0 0 24 0 0 0 0 0 0 0 0 0 0 0 0 0 0 0 0 0 5 1 0 0 0 17 83 13 0 0 0 20 25 4 0 0 141 277 490 466 390 185 1 9 1 5 0 0 0 0 0 0 0 0 0 0
173 218 248 200 208 48 6 0 0 0 0 0 0 0 0 0 0 0 0 0 0 0 0 0 0 0 4 34 26 0 0 0 5 8 25 0 0 7 8 85 0 0 32 123 73 108 132 270 208 153 144 1 0 0 0 0 0 0 0 0 0 0 0
0 0 0 0 0 2 0 0 0 0 0 0 0 0 0 0 0 0 0 0 0 0 0 0 0 0 0 0 7 29 9 2 0 0 0 0 0 1 36 6 0 6 80 283 144 136 59 66 18 180 77 8 0 0 0 0 0 0 0 0 0 0 0
0 0 0 0 0 0 0 0 0 0 0 0 0 0 0 0 0 0 0 0 0 0 0 0 0 0 0 0 0 2 5 8 3 5 0 0 0 0 0 0 11 25 80 251 358 224 162 183 159 104 70 138 0 0 0 0 0 0 0 0 0 0 0
0 0 0 0 0 0 0 0 0 0 0 0 0 0 0 0 0 0 0 0 0 0 0 0 0 0 0 0 0 1 4 25 3 13 11 0 0 0 0 0 0 0 17 64 293 410 367 307 163 243 130 50 11 0 2 0 0 0 0 0 0 0 0
0 0 0 4 0 0 0 0 0 0 0 0 2 0 0 0 0 0 0 0 0 0 0 0 0 0 0 0 0 0 2 0 2 1 8 10 8 0 0 0 1 22 29 17 0 56 82 96 285 287 294 100 102 63 66 5 0 0 0 0 0 0 0
0 0 0 0 0 0 0 1 1 0 0 0 0 0 0 0 0 0 0 0 0 0 0 0 0 0 0 0 0 0 4 26 0 6 5 31 64 17 12 7 1 0 0 0 0 0 0 0 0 184 527 246 139 96 96 42 1 0 0 0 0 0 0
0 0 0 0 0 0 0 0 0 0 0 0 0 0 0 0 0 0 0 0 0 0 1 2 0 0 0 0 0 0 0 20 63 109 72 88 68 61 48 0 57 46 0 0 0 0 0 0 0 0 0 2 38 148 127 55 22 39 0 0 0 27 2
1 0 6 17 21 11 0 0 0 0 0 0 0 0 0 0 0 2 1 0 0 0 1 0 0 0 0 0 0 0 0 0 0 13 82 58 40 67 58 156 113 128 88 116 138 34 0 0 0 0 0 0 0 0 0 228 164 244 144 66 145 132 35
2 4 9 9 5 0 0 0 0 0 0 0 0 0 0 0 0 0 0 0 0 0 0 0 0 0 0 0 0 0 0 0 0 1 1 0 2 12 94 137 317 230 31 5 0 48 210 115 0 0 0 0 0 0 0 0 0 215 358 169 126 252 242
2 0 2 0 0 0 0 0 0 0 0 0 0 0 0 0 0 0 0 0 0 0 0 0 0 0 0 0 0 0 0 0 0 0 3 3 31 60 78 70 67 149 285 154 188 247 197 223 196 18 0 0 25 0 0 0 0 0 8 161 267 255 463
0 0 0 0 0 0 0 0 0 0 0 0 0 0 0 0 0 0 0 0 0 0 0 0 0 0 0 0 0 1 36 44 105 91 36 7 4 3 19 49 113 151 240 321 272 148 196 241 214 248 196 216 221 244 12 0 0 0 0 4 217 375 601
0 0 0 0 0 0 0 3 0 0 0 0 0 0 0 0 0 0 0 0 0 0 0 0 0 0 0 0 0 0 0 4 13 84 126 79 42 56 31 43 122 232 336 363 129 0 0 53 153 186 208 243 231 179 74 36 0 0 0 11 75 116 158
2 0 0 1 6 22 32 3 0 0 4 17 41 38 29 26 5 16 20 9 0 0 0 0 0 0 0 0 0 0 0 0 0 0 0 0 145 170 265 277 288 307 338 401 184 81 0 0 16 192 293 392 460 326 100 20 0 0 0 0 0 0 0
1 0 1 1 3 3 2 45 11 0 36 31 39 64 55 60 70 43 37 51 76 94 29 0 0 0 0 0 0 0 0 0 0 0 0 0 37 239 245 251 274 295 334 371 388 377 374 338 255 278 418 456 479 451 347 196 0 0 0 146 231 242 190
1 4 8 18 6 13 0 0 2 9 46 118 161 162 121 79 93 134 150 131 108 121 131 112 83 0 0 0 0 0 0 0 0 0 0 0 0 19 154 162 260 280 288 321 349 368 374 379 384 397 395 525 500 610 667 718 417 397 368 338 308 275 166
0 0 0 1 1 2 1 0 0 0 0 11 2 9 76 86 66 146 153 80 23 26 12 0 0 0 0 0 0 0 0 0 0 0 0 0 0 0 0 0 0 0 0 10 12 236 246 246 225 290 326 347 476 436 686 654 381 381 383 322 78 104 220
0 0 0 0 0 0 0 0 0 0 0 0 0 0 0 0 0 0 7 0 1 1 0 0 0 0 0 0 0 0 0 0 0 0 0 0 0 0 0 0 0 0 0 1 0 0 0 0 64 64 4 72 232 289 247 266 220 256 227 212 183 73 75
2 4 3 0 0 0 0 0 0 0 0 0 0 0 0 0 0 0 0 0 2 0 0 0 0 0 0 0 0 0 0 0 0 0 0 0 0 0 0 0 0 0 0 0 0 0 0 0 0 0 2 28 0 0 0 27 17 21 66 78 77 113 140
0 0 0 0 0 0 0 0 0 0 0 0 0 0 0 0 0 0 0 0 0 0 0 0 0 0 0 0 0 0 0 0 0 0 0 0 0 0 0 0 0 0 0 0 0 1 2 3 2 0 0 0 0 0 3 0 0 0 7 12 50 58 36
0 0 0 0 0 0 0 0 0 0 0 0 0 0 0 0 0 0 0 0 0 0 0 0 0 0 0 0 0 0 0 0 0 0 0 0 0 0 0 0 0 1 0 0 0 0 0 0 0 0 0 0 0 0 0 0 1 0 0 25 36 54 0
Wind_Speed
14 16 19 21 22 23 23 23 23 22 20 19 18 16 15 15 15 16 15 14 14 14 13 12 12 12 12 11 10 10 11 12 12 12 15 15 10 11 13 12 13 16 17 14 20 19 21 22 nan nan nan nan nan nan nan nan nan nan nan nan nan nan nan
17 18 20 22 23 24 25 23 21 20 19 18 17 16 16 16 16 16 16 15 15 15 13 13 12 12 11 11 10 10 10 11 11 17 17 12 12 14 13 13 14 16 15 17 18 20 21 23 nan nan nan nan nan nan nan nan nan nan nan nan nan nan nan
16 18 18 20 21 21 22 21 19 17 15 14 15 15 16 16 16 16 15 14 14 14 11 10 11 11 10 9 12 11 9 9 12 12 10 10 10 12 11 13 14 15 15 17 17 19 21 20 22 nan nan nan nan nan nan nan nan nan nan nan nan nan nan
18 19 19 20 20 20 20 20 18 16 15 16 16 17 17 17 17 15 14 12 11 11 10 9 9 9 10 9 11 11 10 8 9 10 7 6 7 8 9 10 12 14 14 15 17 18 20 22 24 nan nan nan nan nan nan nan nan nan nan nan nan nan nan
18 17 18 19 19 19 19 20 20 20 20 19 18 18 18 17 15 14 13 11 10 9 9 8 9 10 11 10 11 10 8 8 9 7 3 3 5 7 7 9 12 11 12 12 16 17 18 21 23 24 nan nan nan nan nan nan nan nan nan nan nan nan nan
16 17 17 18 16 16 17 20 21 22 21 19 17 17 18 16 15 13 11 10 10 9 9 8 8 11 10 11 11 10 9 8 6 3 5 5 6 6 7 11 13 12 12 14 15 16 18 20 22 23 nan nan nan nan nan nan nan nan nan nan nan nan nan
16 16 15 15 13 14 16 19 20 20 18 17 17 17 17 16 14 14 12 11 11 9 8 8 8 9 9 9 14 9 8 7 6 4 4 6 6 6 9 10 12 13 15 14 15 17 19 21 21 23 nan nan nan nan nan nan nan nan nan nan nan nan nan
16 15 14 13 13 14 15 18 19 17 16 17 16 18 17 16 15 13 12 12 13 11 10 9 8 8 8 11 9 8 7 6 6 6 7 7 7 6 9 9 12 13 14 14 16 16 18 20 21 22 24 nan nan nan nan nan nan nan nan nan nan nan nan
15 13 12 11 12 13 16 17 17 15 15 16 17 17 17 16 14 13 12 13 14 14 12 11 10 9 8 8 9 9 9 10 9 8 9 8 7 7 8 11 10 12 13 14 14 16 16 18 20 20 21 nan nan nan nan nan nan nan nan nan nan nan nan
14 11 10 10 10 12 15 16 14 13 14 16 17 17 17 16 14 12 13 14 14 13 14 14 13 13 12 12 13 14 13 13 12 12 12 11 11 11 11 12 11 13 13 14 nan 16 17 17 18 19 19 nan nan nan nan nan nan nan nan nan nan nan nan
12 11 11 12 12 13 14 14 13 13 14 17 18 17 16 14 11 10 10 12 12 13 14 15 15 15 15 15 16 17 17 17 16 16 15 14 14 13 14 14 14 15 15 15 16 16 17 16 17 18 17 nan nan nan nan nan nan nan nan nan nan nan nan
13 13 12 13 14 14 15 12 12 13 15 16 17 nan 13 11 10 8 8 9 10 11 12 13 13 13 13 15 16 17 17 16 16 17 16 15 15 14 15 15 15 16 17 17 17 nan 17 17 17 18 18 17 nan nan nan nan nan nan nan nan nan nan nan
15 14 14 14 14 15 14 13 11 11 12 13 14 14 12 11 10 9 8 8 10 11 11 12 11 12 11 12 13 14 15 14 15 15 15 15 15 14 14 14 15 16 17 17 18 18 nan nan 17 18 nan nan nan 18 20 nan nan nan nan nan nan nan nan
17 16 15 15 16 16 16 14 12 11 12 12 nan nan nan nan 13 12 12 11 12 12 12 12 11 11 11 11 11 12 nan nan nan nan nan nan 15 14 14 14 15 16 17 17 17 17 17 nan nan nan nan nan nan nan nan nan nan nan nan nan nan nan nan
17 16 16 16 17 17 16 16 15 nan 13 nan nan nan nan nan nan nan nan nan nan nan nan nan nan nan nan nan nan nan nan nan nan nan nan nan nan nan nan nan 14 15 14 15 16 16 17 17 nan nan nan nan nan nan nan nan nan nan nan nan nan nan nan
18 18 17 17 18 18 nan nan nan 16 nan nan nan nan nan nan nan nan nan nan nan nan nan nan nan nan nan nan nan nan nan nan nan nan nan nan nan nan nan nan nan nan 14 14 15 15 16 16 nan nan nan nan nan nan nan nan nan nan nan nan nan nan nan
19 18 17 17 17 18 nan nan nan nan nan nan nan nan nan nan nan nan nan nan nan nan nan nan nan nan nan nan nan nan nan nan nan nan nan nan nan nan nan nan nan nan nan 15 14 15 15 16 16 nan nan nan nan nan nan nan nan nan nan nan nan nan nan
19 18 17 17 18 nan nan nan nan nan nan nan nan nan nan nan nan nan nan nan nan nan nan nan nan nan nan nan nan nan nan nan nan nan nan nan nan nan nan nan nan nan nan 16 nan 15 16 16 16 15 15 nan nan nan nan nan nan nan nan nan nan nan nan
nan nan nan nan nan nan nan nan nan nan nan nan nan nan nan nan nan nan nan nan nan nan nan nan nan nan nan nan nan nan nan nan nan nan nan nan nan nan nan nan nan nan nan 16 17 17 nan nan nan 16 nan nan nan nan nan nan nan nan nan nan nan nan nan
nan nan nan nan nan nan nan nan nan nan nan nan nan nan nan nan nan nan nan nan nan nan nan nan nan nan nan nan nan nan nan nan nan nan nan nan nan nan nan nan nan nan nan 16 17 17 18 18 17 16 nan 17 nan nan nan nan nan nan nan nan nan nan nan
nan nan nan nan nan nan nan nan nan nan nan nan nan nan nan nan nan nan nan nan nan nan nan nan nan nan nan nan nan nan nan nan nan nan nan nan nan nan nan nan nan nan nan nan 18 19 19 19 20 18 18 nan nan nan nan nan nan nan nan nan nan nan nan
nan nan nan nan nan nan nan nan nan nan nan nan nan nan nan nan nan nan nan nan nan nan nan nan nan nan nan nan nan nan nan nan nan nan nan nan nan nan nan nan nan nan nan nan nan nan nan nan 20 18 19 18 18 nan nan nan nan nan nan nan nan nan nan
nan nan nan nan nan nan nan nan nan nan nan nan nan nan nan nan nan nan nan nan nan nan nan nan nan nan nan nan nan nan nan nan nan nan nan nan nan nan nan nan nan nan nan nan nan nan nan nan nan 19 20 19 18 nan nan nan nan nan nan nan nan nan nan
nan nan nan nan nan nan nan nan nan nan nan nan nan nan nan nan nan nan nan nan nan nan nan nan nan nan nan nan nan nan nan nan nan 20 nan nan nan nan nan nan nan nan nan nan nan nan nan nan nan nan nan nan nan 19 20 nan nan nan nan nan nan nan nan
nan nan nan nan nan nan nan nan nan nan nan nan nan nan nan nan nan nan nan nan nan nan nan nan nan nan nan nan nan nan nan nan nan nan nan nan nan nan nan 23 24 25 nan 23 24 nan nan nan nan nan nan nan nan nan nan 20 21 23 22 nan 20 19 nan
nan nan nan nan nan nan nan nan nan nan nan nan nan nan nan nan nan nan nan nan nan nan nan nan nan nan nan nan nan nan nan nan nan nan nan nan nan nan nan 26 26 27 nan nan nan nan 27 29 nan nan nan nan nan nan nan nan nan 23 27 25 23 23 24
nan nan nan nan nan nan nan nan nan nan nan nan nan nan nan nan nan nan nan nan nan nan nan nan nan nan nan nan nan nan nan nan nan nan nan nan nan nan nan nan nan 29 30 30 29 29 29 29 31 nan nan nan nan nan nan nan nan nan nan 29 30 29 30
nan nan nan nan nan nan nan nan nan nan nan nan nan nan nan nan nan nan nan nan nan nan nan nan nan nan nan nan nan nan nan nan 32 nan nan nan nan nan nan nan 31 31 31 31 32 32 31 31 32 32 31 31 31 33 nan nan nan nan nan nan 34 34 36
nan nan nan nan nan nan nan nan nan nan nan nan nan nan nan nan nan nan nan nan nan nan nan nan nan nan nan nan nan nan nan nan nan nan 37 nan nan nan nan nan 35 34 34 34 39 nan nan nan 34 33 33 33 34 37 nan nan nan nan nan nan nan 42 42
nan nan nan nan nan nan nan nan nan nan nan nan nan nan nan nan nan nan nan nan nan nan nan nan nan nan nan nan nan nan nan nan nan nan nan nan 40 40 39 39 38 37 37 37 43 nan nan nan nan 36 36 37 39 41 nan nan nan nan nan nan nan nan nan
nan nan nan nan nan nan nan nan nan nan nan nan nan nan nan nan nan nan nan nan nan nan nan nan nan nan nan nan nan nan nan nan nan nan nan nan nan 43 45 44 39 40 39 39 45 42 42 43 40 41 41 41 41 42 43 49 nan nan nan 58 56 52 52
nan nan nan nan nan nan nan nan nan nan nan 29 28 28 29 nan nan 33 34 36 38 39 40 42 nan nan nan nan nan nan nan nan nan nan nan nan nan nan 46 47 48 46 46 44 43 42 43 44 43 43 43 44 44 44 45 50 55 55 55 57 57 57 56
nan nan nan nan nan nan nan nan nan nan nan nan nan nan nan nan nan 35 37 nan nan nan nan nan nan nan nan nan nan nan nan nan nan nan nan nan nan nan nan nan nan nan nan nan nan 46 45 46 46 47 47 47 46 45 50 52 56 56 58 59 nan 60 58
nan nan nan nan nan nan nan nan nan nan nan nan nan nan nan nan nan nan nan nan nan nan nan nan nan nan nan nan nan nan nan nan nan nan nan nan nan nan nan nan nan nan nan nan nan nan nan nan nan nan nan nan 50 53 59 54 59 62 59 61 63 nan nan
nan nan nan nan nan nan nan nan nan nan nan nan nan nan nan nan nan nan nan nan nan nan nan nan nan nan nan nan nan nan nan nan nan nan nan nan nan nan nan nan nan nan nan nan nan nan nan nan nan nan nan nan nan nan nan nan nan nan nan nan nan 64 64
nan nan nan nan nan nan nan nan nan nan nan nan nan nan nan nan nan nan nan nan nan nan nan nan nan nan nan nan nan nan nan nan nan nan nan nan nan nan nan nan nan nan nan nan nan nan nan nan nan nan nan nan nan nan nan nan nan nan nan nan nan nan nan
nan nan nan nan nan nan nan nan nan nan nan nan nan nan nan nan nan nan nan nan nan nan nan nan nan nan nan nan nan nan nan nan nan nan nan nan nan nan nan nan nan nan nan nan nan nan nan nan nan nan nan nan nan nan nan nan nan nan nan nan nan nan nan
Wind_Direction
278 275 268 261 258 257 256 253 247 243 240 239 243 245 250 256 258 261 264 266 266 264 264 264 262 262 264 263 269 266 266 266 272 275 275 266 276 266 245 254 262 277 285 257 292 293 290 288 nan nan nan nan nan nan nan nan nan nan nan nan nan nan nan
263 267 267 263 261 259 258 252 248 243 239 238 241 248 252 258 261 263 266 265 264 261 259 256 257 259 264 266 268 253 250 251 249 249 262 274 261 263 268 268 274 284 278 273 276 285 290 289 nan nan nan nan nan nan nan nan nan nan nan nan nan nan nan
271 268 272 268 263 261 256 250 245 243 247 252 253 256 259 260 260 262 261 262 259 259 256 258 260 258 251 250 251 239 237 238 230 249 266 270 267 273 268 273 282 282 283 281 283 281 283 286 294 nan nan nan nan nan nan nan nan nan nan nan nan nan nan
280 274 275 271 264 260 256 249 245 247 256 264 266 264 264 261 258 257 256 258 256 257 256 257 262 269 270 258 251 250 244 242 236 236 229 265 272 276 281 282 283 296 296 296 294 291 287 287 291 nan nan nan nan nan nan nan nan nan nan nan nan nan nan
280 274 271 266 261 258 253 247 245 251 260 265 263 259 256 255 254 252 251 252 252 252 253 252 256 262 270 268 260 262 260 253 248 262 296 297 309 284 285 273 268 262 270 282 290 289 289 291 295 299 nan nan nan nan nan nan nan nan nan nan nan nan nan
276 272 268 265 260 257 253 253 255 259 262 264 259 253 246 246 243 245 248 250 249 247 245 246 249 259 265 267 275 277 266 273 272 285 291 300 302 289 279 263 262 267 267 262 279 286 282 287 292 296 nan nan nan nan nan nan nan nan nan nan nan nan nan
270 271 271 272 264 254 253 257 259 260 260 256 253 246 239 237 233 233 237 242 246 249 249 246 244 254 275 268 264 265 275 271 269 306 294 278 276 279 260 265 263 266 264 271 279 282 286 290 293 295 nan nan nan nan nan nan nan nan nan nan nan nan nan
272 273 274 272 265 257 250 254 255 253 251 245 242 238 236 234 233 233 237 239 244 248 248 249 243 242 244 250 269 282 281 274 283 269 254 263 261 271 266 261 259 261 269 279 285 289 292 295 295 298 298 nan nan nan nan nan nan nan nan nan nan nan nan
270 270 270 269 263 258 255 256 258 252 239 239 235 238 237 238 240 243 245 245 246 245 243 244 246 240 242 248 253 262 266 258 263 267 257 261 261 270 271 266 266 267 271 278 286 286 290 291 293 297 298 nan nan nan nan nan nan nan nan nan nan nan nan
272 276 277 289 281 261 257 257 256 246 240 240 240 237 242 243 246 249 250 247 244 243 245 245 245 245 250 251 255 262 265 267 267 270 264 261 260 266 268 276 275 273 276 277 nan 282 284 288 295 298 299 nan nan nan nan nan nan nan nan nan nan nan nan
265 269 278 290 285 276 268 264 256 252 248 246 247 244 242 245 244 245 250 247 239 237 238 241 244 248 252 252 256 259 260 265 266 263 263 261 260 262 267 273 275 278 278 285 285 287 289 294 297 299 298 nan nan nan nan nan nan nan nan nan nan nan nan
257 263 272 278 280 280 282 277 269 259 257 257 256 nan 247 243 237 232 243 253 250 245 239 241 244 248 252 256 257 258 259 263 264 263 260 258 257 261 267 274 275 275 278 282 284 nan 291 296 299 297 292 292 nan nan nan nan nan nan nan nan nan nan nan
257 263 270 272 271 275 276 275 268 270 269 263 257 255 251 251 248 247 249 260 267 261 254 246 245 248 248 250 256 259 260 264 266 265 264 262 262 265 272 276 277 275 278 281 285 287 nan nan 293 294 nan nan nan 293 301 nan nan nan nan nan nan nan nan
247 251 260 261 260 258 259 260 261 262 265 263 nan nan nan nan 263 263 269 270 270 266 259 251 244 247 247 251 251 258 nan nan nan nan nan nan 268 271 274 276 277 274 279 283 283 285 290 nan nan nan nan nan nan nan nan nan nan nan nan nan nan nan nan
245 246 251 251 249 251 251 252 255 nan 266 nan nan nan nan nan nan nan nan nan nan nan nan nan nan nan nan nan nan nan nan nan nan nan nan nan nan nan nan nan 282 282 288 294 290 296 294 296 nan nan nan nan nan nan nan nan nan nan nan nan nan nan nan
251 250 250 249 250 249 nan nan nan 259 nan nan nan nan nan nan nan nan nan nan nan nan nan nan nan nan nan nan nan nan nan nan nan nan nan nan nan nan nan nan nan nan 286 294 297 295 293 299 nan nan nan nan nan nan nan nan nan nan nan nan nan nan nan
256 253 251 248 251 248 nan nan nan nan nan nan nan nan nan nan nan nan nan nan nan nan nan nan nan nan nan nan nan nan nan nan nan nan nan nan nan nan nan nan nan nan nan 293 295 291 293 294 297 nan nan nan nan nan nan nan nan nan nan nan nan nan nan
250 251 252 253 255 nan nan nan nan nan nan nan nan nan nan nan nan nan nan nan nan nan nan nan nan nan nan nan nan nan nan nan nan nan nan nan nan nan nan nan nan nan nan 287 nan 291 293 298 298 296 298 nan nan nan nan nan nan nan nan nan nan nan nan
nan nan nan nan nan nan nan nan nan nan nan nan nan nan nan nan nan nan nan nan nan nan nan nan nan nan nan nan nan nan nan nan nan nan nan nan nan nan nan nan nan nan nan 282 286 287 nan nan nan 295 nan nan nan nan nan nan nan nan nan nan nan nan nan
nan nan nan nan nan nan nan nan nan nan nan nan nan nan nan nan nan nan nan nan nan nan nan nan nan nan nan nan nan nan nan nan nan nan nan nan nan nan nan nan nan nan nan 274 280 285 287 288 285 290 nan 288 nan nan nan nan nan nan nan nan nan nan nan
nan nan nan nan nan nan nan nan nan nan nan nan nan nan nan nan nan nan nan nan nan nan nan nan nan nan nan nan nan nan nan nan nan nan nan nan nan nan nan nan nan nan nan nan 272 276 281 282 280 282 280 nan nan nan nan nan nan nan nan nan nan nan nan
nan nan nan nan nan nan nan nan nan nan nan nan nan nan nan nan nan nan nan nan nan nan nan nan nan nan nan nan nan nan nan nan nan nan nan nan nan nan nan nan nan nan nan nan nan nan nan nan 272 274 273 275 277 nan nan nan nan nan nan nan nan nan nan
nan nan nan nan nan nan nan nan nan nan nan nan nan nan nan nan nan nan nan nan nan nan nan nan nan nan nan nan nan nan nan nan nan nan nan nan nan nan nan nan nan nan nan nan nan nan nan nan nan 255 262 272 273 nan nan nan nan nan nan nan nan nan nan
nan nan nan nan nan nan nan nan nan nan nan nan nan nan nan nan nan nan nan nan nan nan nan nan nan nan nan nan nan nan nan nan nan 254 nan nan nan nan nan nan nan nan nan nan nan nan nan nan nan nan nan nan nan 273 275 nan nan nan nan nan nan nan nan
nan nan nan nan nan nan nan nan nan nan nan nan nan nan nan nan nan nan nan nan nan nan nan nan nan nan nan nan nan nan nan nan nan nan nan nan nan nan nan 260 260 260 nan 263 261 nan nan nan nan nan nan nan nan nan nan 272 277 279 281 nan 280 283 nan
nan nan nan nan nan nan nan nan nan nan nan nan nan nan nan nan nan nan nan nan nan nan nan nan nan nan nan nan nan nan nan nan nan nan nan nan nan nan nan 254 257 259 nan nan nan nan 263 268 nan nan nan nan nan nan nan nan nan 276 280 284 283 284 289
nan nan nan nan nan nan nan nan nan nan nan nan nan nan nan nan nan nan nan nan nan nan nan nan nan nan nan nan nan nan nan nan nan nan nan nan nan nan nan nan nan 257 260 263 262 262 262 262 266 nan nan nan nan nan nan nan nan nan nan 281 284 286 286
nan nan nan nan nan nan nan nan nan nan nan nan nan nan nan nan nan nan nan nan nan nan nan nan nan nan nan nan nan nan nan nan 258 nan nan nan nan nan nan nan 261 259 259 260 261 261 261 264 267 268 271 273 275 276 nan nan nan nan nan nan 285 287 285
nan nan nan nan nan nan nan nan nan nan nan nan nan nan nan nan nan nan nan nan nan nan nan nan nan nan nan nan nan nan nan nan nan nan 258 nan nan nan nan nan 261 261 261 261 266 nan nan nan 265 269 273 276 278 279 nan nan nan nan nan nan nan 284 285
nan nan nan nan nan nan nan nan nan nan nan nan nan nan nan nan nan nan nan nan nan nan nan nan nan nan nan nan nan nan nan nan nan nan nan nan 262 263 264 262 262 261 260 261 262 nan nan nan nan 273 274 277 278 281 nan nan nan nan nan nan nan nan nan
nan nan nan nan nan nan nan nan nan nan nan nan nan nan nan nan nan nan nan nan nan nan nan nan nan nan nan nan nan nan nan nan nan nan nan nan nan 264 266 268 264 264 263 263 262 267 272 276 274 276 277 278 279 282 283 284 nan nan nan 281 283 284 283
nan nan nan nan nan nan nan nan nan nan nan 254 256 260 259 nan nan 254 251 248 244 247 249 248 nan nan nan nan nan nan nan nan nan nan nan nan nan nan 264 269 270 265 263 261 258 263 269 276 273 275 276 277 279 281 282 284 284 285 285 285 284 284 284
nan nan nan nan nan nan nan nan nan nan nan nan nan nan nan nan nan 257 253 nan nan nan nan nan nan nan nan nan nan nan nan nan nan nan nan nan nan nan nan nan nan nan nan nan nan 264 268 275 275 274 275 277 279 281 279 280 282 283 283 283 nan 285 285
nan nan nan nan nan nan nan nan nan nan nan nan nan nan nan nan nan nan nan nan nan nan nan nan nan nan nan nan nan nan nan nan nan nan nan nan nan nan nan nan nan nan nan nan nan nan nan nan nan nan nan nan 280 274 271 277 279 282 281 282 283 nan nan
nan nan nan nan nan nan nan nan nan nan nan nan nan nan nan nan nan nan nan nan nan nan nan nan nan nan nan nan nan nan nan nan nan nan nan nan nan nan nan nan nan nan nan nan nan nan nan nan nan nan nan nan nan nan nan nan nan nan nan nan nan 282 283
nan nan nan nan nan nan nan nan nan nan nan nan nan nan nan nan nan nan nan nan nan nan nan nan nan nan nan nan nan nan nan nan nan nan nan nan nan nan nan nan nan nan nan nan nan nan nan nan nan nan nan nan nan nan nan nan nan nan nan nan nan nan nan
nan nan nan nan nan nan nan nan nan nan nan nan nan nan nan nan nan nan nan nan nan nan nan nan nan nan nan nan nan nan nan nan nan nan nan nan nan nan nan nan nan nan nan nan nan nan nan nan nan nan nan nan nan nan nan nan nan nan nan nan nan nan nan